User: anonymous   Login
Location: San Francisco
(37.7750°N, 122.4180°W)
Time: 09:14:46
(UTC-07:00)
Language:

GP-B - Orbit

View from above orbital plane
View from above orbital plane
View from above satellite
View from above satellite

Ground track
Ground track

The orbit data is extracted from the following two-line orbital elements,

1 28230U 04014A   15088.46952625  .00000987  00000-0  13456-3 0  9991
2 28230 089.8768 135.9270 0002763 107.5120 252.6405 14.78047434589327
Epoch (UTC): 29 March 2015 11:16:07
Eccentricity: 0.0002763
inclination: 89.8768°
perigee height: 633 km
apogee height: 637 km
right ascension of ascending node: 135.9270°
argument of perigee: 107.5120°
revolutions per day: 14.78047434
mean anomaly at epoch: 252.6405°
orbit number at epoch: 58932

The dashed part of the orbit path shows where the satellite is in the earth's shadow,  

DLR